sat.trackr.live / text

‹ back to catalog

LDPE-3A

NORAD 55264 · 2023-008B

PAYLOAD ACTIVE UNKNOWN

§ Identity

Operator
Country
US
Launch date
2023-01-15
Launch site
AFETR
Launch vehicle
Mass (kg)
RCS (m²)

Purposes: comms

External: N2YO · Heavens-Above · Gunter

§ Orbital elements

Epoch: 2026-07-18T17:14:05.313984Z

Period
1,452.36 min
Inclination
2.4283°
Eccentricity
0.0001593
Mean motion
0.99148875 rev/d
Perigee alt
36,097.6 km
Apogee alt
36,111.1 km
Semi-major
42,482.5 km
B*
0.0000e+0
RAAN
81.2748°
Arg perigee
72.4873°
Mean anomaly
164.8316°
Rev number
1,212

§ Raw data

LDPE-3A1 55264U 23008B   26199.71811706 -.00000253  00000+0  00000+0 0  99922 55264   2.4283  81.2748 0001593  72.4873 164.8316  0.99148875 12128

JSON: /api/v1/satellites/55264 · /tle

For live sub-satellite position, see the globe view (requires WebGL).

§ Visibility from observer

Set your observer location to see the next 7 days of passes ≥ 10°. The values pass through the URL so the page stays shareable.

No JS? Fill the form by hand. The geolocation button needs JavaScript.